This demonstration page uses our WeatherBlox Daily Observations layout. Learn more.

Left ArrowRight Arrow

34.16533, -84.80231

Hourly Observations for July 25, 2016

Temp ( °F °C ) Dew Point ( °F °C ) Humidity (%) Winds ( mph kmh ) Pressure ( in mb ) Visibility ( mi km ) Precip ( " mm )
12:53 am 00:53 Clear 73 22.8 71 21.7 94 94 Calm 30.01 1016 10 16 0.00 0.00
1:53 am 01:53 Clear 72 22.2 70 21.1 94 94 Calm 30.00 1016 10 16 0.00 0.00
2:53 am 02:53 Clear 71 21.7 70 21.1 96 96 Calm 29.98 1015 10 16 0.00 0.00
3:53 am 03:53 Clear 70 21.1 69 20.6 97 97 Calm 29.99 1016 9 14 0.00 0.00
4:53 am 04:53 Clear 70 21.1 69 20.6 97 97 Calm 30.01 1016 10 16 0.00 0.00
5:53 am 05:53 Clear 71 21.7 70 21.1 96 96 Calm 30.02 1017 10 16 0.00 0.00
6:53 am 06:53 Sunny 71 21.7 69 20.6 94 94 Calm 30.04 1017 8 13 0.00 0.00
7:53 am 07:53 Mostly Sunny 73 22.8 71 21.7 94 94 Calm 30.06 1018 10 16 0.00 0.00
8:53 am 08:53 Sunny 78 25.6 73 22.8 85 85 Calm 30.06 1018 10 16 0.00 0.00
9:53 am 09:53 Sunny 83 28.3 72 22.2 70 70 Calm 30.06 1018 10 16 0.00 0.00
10:53 am 10:53 Sunny 89 31.7 73 22.8 59 59 Calm 30.05 1018 10 16 0.00 0.00
11:53 am 11:53 Mostly Sunny 90 32.2 71 21.7 54 54 Calm 30.04 1017 10 16 0.00 0.00
12:53 pm 12:53 Mostly Cloudy 92 33.3 70 21.1 49 49 VRB 3 6 30.02 1017 10 16 0.00 0.00
1:53 pm 13:53 Sunny 93 33.9 70 21.1 47 47 S 5 7 30.01 1016 10 16 0.00 0.00
2:53 pm 14:53 Mostly Sunny 96 35.6 66 18.9 37 37 SSW 7 11 29.98 1015 10 16 0.00 0.00
3:53 pm 15:53 Sunny 96 35.6 67 19.4 39 39 VRB 7 11 29.96 1014 10 16 0.00 0.00
4:53 pm 16:53 Sunny 94 34.4 69 20.6 44 44 S 6 9 29.94 1014 10 16 0.00 0.00
5:53 pm 17:53 Sunny 95 35 65 18.3 37 37 VRB 3 6 29.93 1014 10 16 0.00 0.00
6:53 pm 18:53 Sunny 95 35 66 18.9 39 39 N 3 6 29.92 1013 10 16 0.00 0.00
7:53 pm 19:53 Sunny 90 32.2 70 21.1 52 52 Calm 29.94 1014 10 16 0.00 0.00
8:53 pm 20:53 Clear 87 30.6 71 21.7 59 59 SSE 8 13 29.96 1015 10 16 0.00 0.00
9:30 pm 21:30 Cloudy with Thunderstorms 82 27.8 72 22.2 72 72 S 9 15 30.00 1016 10 16 0.00 0.00
9:53 pm 21:53 Mostly Cloudy with Thunderstorms 78 25.6 73 22.8 85 85 VRB 3 6 30.00 1016 10 16 0.00 0.03
10:01 pm 22:01 Partly Cloudy with Nearby Thunderstorms 78 25.6 73 22.8 85 85 Calm 30.00 1016 10 16 0.00 0.00
10:33 pm 22:33 Cloudy 77 25 73 22.8 88 88 S 7 11 30.00 1016 10 16 0.00 0.03
10:53 pm 22:53 Cloudy with Light Rain 76 24.4 72 22.2 88 88 SSW 3 6 30.03 1017 10 16 0.01 0.25
11:53 pm 23:53 Cloudy with Light Rain 75 23.9 73 22.8 94 94 ESE 3 6 30.05 1018 7 11 0.04 1.02

Powered by AerisWeather